Overview Statistics Trail Chart Weather Telemetry Raw packets
 

This is the latest recevied weather packets stored in our database for station/object W8KJR. If no packets are shown the sender has not sent any weather packets the latest 10 day(s).

<< 7 8 9 10 11 12 13 >>
Time Temp. Humidity Pressure Rain* Wind** Luminosity Snow
1777834836 17.22° C 37% 1013.5 hPa 0 mm - - -
1777833934 17.22° C 39% 1013.3 hPa 0 mm - - -
1777833031 16.67° C 41% 1013.6 hPa 0 mm - - -
1777832129 17.22° C 40% 1013.7 hPa 0 mm - - -
1777831226 17.22° C 39% 1013.9 hPa 0 mm - - -
1777830324 17.22° C 39% 1013.9 hPa 0 mm - - -
1777829423 16.67° C 41% 1014.1 hPa 0 mm - - -
1777828520 - - - 0 mm - - -
1777827617 15.56° C 43% 1014.5 hPa 0 mm - - -
1777826714 16.11° C 43% 1014.6 hPa 0 mm - - -
1777825825 - - - 0 mm - - -
1777824908 14.44° C 48% 1015 hPa 0 mm - - -
1777824009 14.44° C 50% 1015.1 hPa 0 mm - - -
1777823106 13.89° C 52% 1015.3 hPa 0 mm - - -
1777822204 13.33° C 51% 1015.3 hPa 0 mm - - -
1777821304 12.78° C 51% 1015.3 hPa 0 mm - - -
1777820404 12.78° C 54% 1015.4 hPa 0 mm - - -
1777819503 12.22° C 56% 1015.8 hPa 0 mm - - -
1777818598 11.67° C 55% 1015.6 hPa 0 mm - - -
1777817695 11.11° C 56% 1015.5 hPa 0 mm - - -
1777816790 10.56° C 57% 1015.9 hPa 0 mm - - -
1777815889 10° C 57% 1015.9 hPa 0 mm - - -
1777814985 9.44° C 57% 1015.9 hPa 0 mm - - -
1777814082 9.44° C 58% 1016 hPa 0 mm - - -
1777813178 8.89° C 59% 1015.7 hPa 0 mm - - -

* Rain latest hour (hover to see other rain measurements)
** Current wind speed in m/s (hover to see current wind gust speed)